FLTA4: Red River, Fulton, AR

Data processed at Mon 03Oct2022 03:31 GMT


All information presented herein is the property of the government of the United States of America and may be revised or deleted at any time without prior notice.
Dissemination of this information without the expressed written consent of the Public Affairs Office, Tulsa District U.S. Army Corps of Engineers is strictly prohibited.
These data are gathered electronically and, as presented, have not undergone any form of quality control. These data are not guaranteed to be valid or correct.
Go to home page.
Go to station list.

Upstream stations:


Previous Day
Next Day
Current Day


                            
SHEF ID:       FLTA4     Red River nr Fulton
STATION TYPE:  
Regulating: Stage =    25.00, Flow =   146880

               PRECIP     STAGE  RIV-FLOW   VOLTAGE
                   in        ft       cfs      volt
              Ccp-Rev   Ccp-Rev   Ccp-Rev   Ccp-Rev
(US/Central)
10/02 00:00      0.00     -2.91      2546     12.40
10/02 01:00      0.00     -2.93      2517     12.40
10/02 02:00      0.00     -2.94      2502     12.40
10/02 03:00      0.00     -2.95      2488     12.30
10/02 04:00      0.00     -2.96      2473     12.30
10/02 05:00      0.00     -2.97      2459     12.30
10/02 06:00      0.00     -2.98      2444     12.30
10/02 07:00      0.00     -2.99      2430      ----
10/02 08:00      0.00     -3.00      2416     12.30
10/02 09:00      0.00     -3.01      2401     13.00
10/02 10:00      0.00     -3.01      2401     13.40
10/02 11:00      0.00     -3.01      2401     12.90
10/02 12:00      0.00     -3.03      2373     12.70
10/02 13:00      0.00     -3.04      2359     12.90
10/02 14:00      0.00     -3.05      2344     12.90
10/02 15:00      0.00     -3.06      2330     12.70
10/02 16:00      0.00     -3.09      2288     12.60
10/02 17:00      0.00     -3.09      2288     12.70
10/02 18:00      0.00     -3.10      2274     12.70
10/02 19:00      0.00     -3.11      2260     12.70
10/02 20:00      0.00     -3.12      2247     12.50
10/02 21:00      0.00     -3.13      2233      ----
10/02 22:00      0.00     -3.13      2233     12.50
10/02 23:00      ----      ----      ----      ----